Center Hill Observed Data For Previous 48 Hours

Caption
Day and Hour Reservoir Elevation (behind dam)* Tailwater Elevation (below dam)* Average Hourly Discharge*
12/10/2018 1 AM CST 631.99 481.39 4,520
12/10/2018 2 AM CST 632.08 481.38 4,520
12/10/2018 3 AM CST 632.17 481.37 4,470
12/10/2018 4 AM CST 632.27 481.37 4,470
12/10/2018 5 AM CST 632.36 481.36 4,470
12/10/2018 6 AM CST 632.46 481.36 4,470
12/10/2018 7 AM CST 632.55 481.35 4,460
12/10/2018 8 AM CST 632.64 481.34 4,450
12/10/2018 9 AM CST 632.73 481.33 4,440
12/10/2018 10 AM CST 632.81 482.21 5,675
12/10/2018 11 AM CST 632.89 482.69 6,095
12/10/2018 12 PM CST 632.98 482.68 5,915
12/10/2018 1 PM CST 633.05 482.98 5,985
12/10/2018 2 PM CST 633.13 483.28 6,055
12/10/2018 3 PM CST 633.20 483.57 7,660
12/10/2018 4 PM CST 633.27 483.87 7,660
12/10/2018 5 PM CST 633.33 484.03 7,660
12/10/2018 6 PM CST 633.38 483.98 7,660
12/10/2018 7 PM CST 633.44 484.04 7,460
12/10/2018 8 PM CST 633.50 484.00 7,460
12/10/2018 9 PM CST 633.55 484.05 7,460
12/10/2018 10 PM CST 633.60 484.00 7,470
12/10/2018 11 PM CST 633.64 484.04 7,470
12/11/2018 12 AM CST 633.68 484.08 7,470
12/11/2018 1 AM CST 633.73 484.13 7,670
12/11/2018 2 AM CST 633.77 484.07 7,670
12/11/2018 3 AM CST 633.81 484.11 7,470
12/11/2018 4 AM CST 633.85 484.05 7,460
12/11/2018 5 AM CST 633.89 484.09 7,460
12/11/2018 6 AM CST 633.93 484.03 7,460
12/11/2018 7 AM CST 633.96 484.06 7,460
12/11/2018 8 AM CST 633.99 483.99 7,460
12/11/2018 9 AM CST 634.03 484.03 7,390
12/11/2018 10 AM CST 634.06 483.96 7,390
12/11/2018 11 AM CST 634.08 484.88 7,420
12/11/2018 12 PM CST 634.10 485.10 7,420
12/11/2018 1 PM CST 634.13 485.13 8,950
12/11/2018 2 PM CST 634.15 485.25 8,950
12/11/2018 3 PM CST 634.16 485.26 8,950
12/11/2018 4 PM CST 634.17 485.37 8,950
12/11/2018 5 PM CST 634.19 485.39 8,950
12/11/2018 6 PM CST 634.19 485.39 9,000
12/11/2018 7 PM CST 634.22 485.32 9,000
12/11/2018 8 PM CST 634.23 485.33 9,000
12/11/2018 9 PM CST 634.25 485.35 8,950
12/11/2018 10 PM CST 634.26 485.36 9,000
12/11/2018 11 PM CST 634.26 485.36 9,000
12/12/2018 12 AM CST 634.27 485.37 9,000

Elevations are in feet above sea level. Discharges are in cubic feet per second and are reported at the end of the hour.